Location: Alma
(34.4195°N, 97.6123°W)
Time: 04:01:15
(UTC+00:00)

Tiangong - Visible Passes

Search period start: 28 November 2022 00:00
Search period end: 08 December 2022 00:00
Orbit: 386 x 393 km, 41.5° (Epoch: 27 November)

Date Brightness Start Highest point End Pass type
(mag) Time Alt. Az. Time Alt. Az. Time Alt. Az.
28 Nov -0.7 00:26:23 10° SSW 00:29:07 26° SE 00:30:05 22° ESE visible
29 Nov -1.5 01:04:41 10° WSW 01:07:18 56° W 01:07:18 56° W visible
30 Nov -1.8 00:06:42 10° SW 00:09:49 56° SSE 00:12:06 17° ENE visible
30 Nov 1.2 01:44:00 10° W 01:44:25 13° WNW 01:44:25 13° WNW visible
01 Dec -1.5 00:45:36 10° W 00:48:40 43° NNW 00:49:08 40° N visible
01 Dec -2.0 23:47:18 10° WSW 23:50:28 71° NNW 23:53:40 10° ENE visible
02 Dec 0.6 01:25:03 10° WNW 01:26:06 16° NW 01:26:06 16° NW visible
03 Dec -0.8 00:26:33 10° WNW 00:29:24 29° NNW 00:30:41 22° NNE visible
04 Dec 0.1 01:05:55 10° NW 01:07:32 19° NNW 01:07:32 19° NNW visible
05 Dec -0.5 00:07:24 10° WNW 00:10:03 23° N 00:12:03 14° NE visible
06 Dec -0.4 00:46:30 10° NW 00:48:52 22° N 00:48:52 22° N visible
06 Dec -0.4 23:48:02 10° NW 23:50:35 22° N 23:53:09 10° NE visible
07 Dec 0.7 01:25:04 10° NW 01:25:42 14° NW 01:25:42 14° NW visible
